User: anonymous   Login
Location: Carella
(45.8167°N, 9.2667°E)
Time: 11:31:31
(UTC+00:00)
Language:

Cosmos 2184 Rocket - Orbit

View from above orbital plane
View from above orbital plane
View from above satellite
View from above satellite

Ground track
Ground track

The orbit data is extracted from the following two-line orbital elements,

1 21938U 92020B   20184.75526715  .00000008  00000-0 -75407-5 0  9996
2 21938  82.9303 255.1990 0028455 333.2927 161.0230 13.75285617416070
Epoch (UTC): 02 July 2020 18:07:35
Eccentricity: 0.0028455
inclination: 82.9303°
perigee height: 960 km
apogee height: 1001 km
right ascension of ascending node: 255.1990°
argument of perigee: 333.2927°
revolutions per day: 13.75285617
mean anomaly at epoch: 161.0230°
orbit number at epoch: 41607

The dashed part of the orbit path shows where the satellite is in the earth's shadow,  

DLR